STARLINK-1625, 46131

Orbit data source: Space-Track

STARLINK-1625, 46131 is a payload satellite owned by SpaceX/Seattle (US) in LEO that was launched on Tue, 18 Aug 2020 UTC via an FALCON 9 launch vehicle from the Air Force Eastern Test Range (AFETR). Payloads include a variety of satellites, spacecraft, and rockets equipped with specific instruments for various scientific and technological missions. These include communications satellites like Starlink; space stations such as the ISS; scientific satellites like the Hubble; Earth observation satellites from companies like Planet Labs, Umbra, and HawkEye 360; GPS; miniature CubeSats for education and research; and military/defense satellites.

Loading next visibility...
STARLINK-1625 details
Identifier
46131, 2020-057Q
Orbit
LEO
Last TLE update5 hours ago
Origin
Flag of USSpaceX/Seattle (US)
ManufacturerSpaceX/Seattle
MissionOperational Commercial Communications
Bus & MotorSTARLINK, Unknown motor
Mass260 kg wet, ~248 kg dry
Launch date (UTC)
2020-08-18 (4 years ago)
Launch vehicle
FALCON 9
Launch site
Air Force Eastern Test Range (AFETR)
Object type
Payload
Rocket body
Debris
Shape & HBRBox + 1 Pan, 8.86 m
Radar Cross Section13.562 m², Large (>1 m²)

Expand to show TLE details & history

TLE from 5 hours ago
0 STARLINK-1625
1 46131U 20057Q   24361.47719243  .00024683  00000-0  16701-2 0  9992
2 46131  53.0538 103.8300 0001682  77.4987 282.6190 15.06401091240961
Epoch: 2024-12-26T11:27Z
Definitive object data (Epoch: 2024-12-26T11:27:09.425Z)
Latitude-0.00005°
Longitude-163.41534°
Altitude547.833 km
Speed7.589 km/s
True Right ascension06h 55m 19s
True Declination0° 00' 00"
Sunlit
Object was in full shadow at TLE epoch
Visualization TLE readout
Latitude15.12045°
Longitude3.89791°
Altitude547.198 km
Speed7.591 km/s
Apparent Right ascension20h 58m 31s
Apparent Declination-35° 38' 49"
Sunlit
Object is in daylight
Visualization observer readout
Local Sidereal Time16:18:42
Azimuth129.341° SE
Elevation-9.224°
Doppler factor1
Orbital elements
Apogee altitude548.644 km
Perigee altitude546.314 km
Semi-major axis6,925.616 km
Eccentricity0.0001682
Inclination53.0538°
RAAN103.83°
Arg. of periapsis77.4987°
True anomaly282.60019°
Mean anomaly282.619°
Eccentric anomaly282.6096°
Mean motion3.76579 °/min
BSTAR0.0016701
Orbital period95.6 mins
Loading maneuver chart data...
Loading historical data...
Loading historical data...
Loading historical data...
Loading historical data...
Loading historical data...
Loading historical data...
Loading historical data...

STARLINK-1625 Visibility forecast

Observer location: undefined°, undefined

Span
Click to sort rows by Start time (UTC) header in descending order
Start Az.
Max El. time (UTC)
Max El. Az.
Max El.
End time (UTC)
End Az.
6 mins2024-12-27 09:56:27.345Z237.736° WSW2024-12-27 09:59:27.345Z357.183° N43.511°2024-12-27 10:02:27.345Z46.129° ENE
4 mins2024-12-27 11:37:27.345Z307.205° NW2024-12-27 11:39:27.345Z343.693° N18.244°2024-12-27 11:41:27.345Z18.086° NNE
4 mins2024-12-27 14:59:27.345Z353.712° N2024-12-27 15:00:27.345Z14.085° NNE21.057°2024-12-27 15:03:27.345Z70.297° E
6 mins2024-12-27 16:38:27.345Z304.071° NW2024-12-27 16:40:27.345Z266.149° W43.446°2024-12-27 16:44:27.345Z136.967° SSE
|